Timeline UpdatesTrip UpdatesNews PostsPvt PostsTravel TipsAdmin PostsConv PostsFollowed PostsChat RequestsBlog PostsPNR Posts

Disclaimer
Search
 
 
Wed Sep 17, 2014 17:05:48 ISTHomeTrainsΣChainsAtlasPNRForumGalleryNewsFAQTripsMembersLoginFeedback
No Recent News for this Train
Other Trains in the News **new
Latest...
..
Mon Jun 09, 2014 (11:41AM)
⇐ Return Journey: Train# 12313

12314/New Delhi - Sealdah Rajdhani Express

NO Time-Table Change.
Sep 15 (6:46AM)
Change Departure Station:
Change Arrival Station:
Post a Train Travel TipPost a Train Travel Tip **new
Post a Comment/Question/Picture/VideoPost a Comment/Question/Picture/Video
Inaugural Run
Sat Jul 01, 2000
Pantry/Catering
✓ Pantry Car Avbl
✓ Catering Avbl
Evening snacks+Dinner+Bed Tea+Morning Breakfast ; (Cost included in fare)
RSA - Rake Sharing
No RSA.
Rake/Coach Composition
LOCO-EOG-H1-PC-A3-A2-A1-B12-B11-B10-B9-B8-B7-B6-B5-B4-B3-B2-B1-PC-EOG
Loco
WAP-7 of Ghaziabad Shed (NR). WAP-4 is seen rarely.
News    PNR    Forum    Time-Table    Availability    Fare Chart    Map    Arr/Dep History    Trips    Gallery    ΣChains    X/O    Timeline    
Travel Time: 15h 22m    5 halts    Distance: 1293 km    Avg Speed: 84 km/hr
Type: Rajdhani
Zone: ER/Eastern
Departs @ 16:25
Platform# 13
SMTWTFS
New Delhi/NDLS 
Arrives @ 07:47 +1 night
Platform# 4
SMTWTFS
Durgapur/DGR 

5 halts. 213 intermediate Stations between New Delhi and Durgapur

Hide intermediate Stations  

#CodeStation NameX/OArrivesAvgDepartsAvgHaltPFDay#KmSpeedElevZoneAddress
1NDLS»New Delhi (16)»  -16:25-1310.090215mNRNew Delhi, Delhi NCT
1.1CSBShivaji Bridge (4)  16:26-16:26-  11.1 90213mNRConnaught Place, Delhi NCT
1.2TKJTilak Bridge (4)  16:27-16:27-  12.4 90214mNRNew Delhi, Delhi NCT
1.3MWCMandawali-Chander Vihar (2)  16:31-16:31-  18.7 90206mNRDelhi-110092, Delhi NCT
1.4ANVRAnand Vihar (2)  16:33-16:33-  112.2 90213mNRAnand Vihar, Delhi NCT
1.5ANVTDelhi Anand Vihar Terminal (3)  16:33-16:33-  112.3 90208mNRGhazipur Road, Delhi NCT
1.6CNJChander Nagar (2)  16:35-16:35-  114.4 90206mNRSahibabad Industrial Area Site 4, Uttar Pradesh
1.7DSBPDelhi Shahdara B Panel  16:36-16:36-  115.7 90206mNRGhaziabad, Uttar Pradesh
1.8SBBSahibabad Junction (5)X  16:37-16:37-  118.0 90209mNRGhaziabad, Uttar Pradesh
1.9GZBGhaziabad Junction (6)X  16:42-16:42-  125.3 90217mNRGhaziabad, Uttar Pradesh
1.10CYZChipyana Buzurg (1)  16:44-16:44-  128.8 90209mNRGhaziabad, Uttar Pradesh
1.11MIUMaripat (2)  16:49-16:49-  135.3 90213mNCRNational Highway 91, Uttar Pradesh
1.12DERDadri (3)  16:53-16:53-  142.0 90210mNCR203207, Uttar Pradesh
1.13BRKYBoraki (2)  16:56-16:56-  146.3 90208mNCRNational Highway 91, Uttar Pradesh
1.14AJRAjaibpur (2)  16:59-16:59-  151.2 90207mNCRGreater Noida, Uttar Pradesh
1.15DKDEDankaur (3)O  17:05-17:05-  159.5 90209mNCRShyam Nagar Mandi, Uttar Pradesh
1.16WAIRWair (2)  17:11-17:11-  168.5 90203mNCRBulandshahr District, Uttar Pradesh
1.17WIRWairX  17:11-17:11-  168.5 90203mNCRBhati Harish Singh, Uttar Pradesh
1.18CHLChola (3)  17:14-17:14-  173.4 90204mNCRTahsil Bulandshahar, Uttar Pradesh
1.19GNRLGangraul (3)  17:17-17:17-  177.5 90200mNCRMDR 70W, Uttar Pradesh
1.20SKQSikandarpur (2)  17:20-17:20-  182.3 90199mNCRMDR 70W, Uttar Pradesh
1.21KRJKhurja Junction (4)  17:24-17:24-  187.9 90199mNCRBulandshahr, Uttar Pradesh
1.22KAMPKamalpur (2)X  17:28-17:28-  193.5 90195mNCRKamalpur, Uttar Pradesh
1.23DARDanwar (2)  17:31-17:31-  199.1 90198mNCRDanwar, Uttar Pradesh
1.24SOMSomna (2)XO  17:38-17:38-  1109.3 90195mNCRNational Highway 91, Uttar Pradesh
1.25KLAKulwa (2)  17:45-17:45-  1119.5 90190mNCRAligarh, Uttar Pradesh
1.26MWUEMahrawal (2)  17:49-17:49-  1125.1 90189mNCRNational Highway 91, Uttar Pradesh
1.27ALJNAligarh Junction (4)X  17:53-17:53-  1131.4 90192mNCRAligarh, Uttar Pradesh
1.28DAQDaud Khan (3)  17:58-17:58-  1138.5 90189mNCRNational Highway 91, Uttar Pradesh
1.29MXKMandrak (2)  18:02-18:02-  1145.3 90190mNCRNational Highway 93, Uttar Pradesh
1.30SNSSasni (3)XO  18:07-18:07-  1152.6 90185mNCRSasni, Uttar Pradesh
1.31HRSHathras Junction (3)X  18:13-18:13-  1161.6 90183mNCRMahamaya Nagar(05722-242803), Uttar Pradesh
1.32PORAPora (2)  18:20-18:20-  1172.0 90179mNCRHathras, Uttar Pradesh
1.33JLSJalesar Road (1)X  18:27-18:27-  1181.7 90172mNCRMDR 106W, Uttar Pradesh
1.34CMRChamrola (1)O  18:31-18:31-  1188.1 90174mNCRMDR 106W, Uttar Pradesh
1.35BRNBarhan JunctionO  18:35-18:35-  1194.9 90173mNCRJN Point-Tundle/Aligarh/Etah, Uttar Pradesh
1.36MTIMitawali (1)  18:41-18:41-  1202.7 90169mNCRMitawali, Uttar Pradesh
1.37WSCShivarampur  18:43-18:43-  1206.1 90168mNCRShivarampur, Uttar Pradesh
1.38TDLTundla Junction (5)X  18:45-18:45-  1209.6 90167mNCRDistt.Firozabad, Uttar Pradesh
1.39HNGHirangaon (2)X  18:51-18:51-  1218.3 90166mNCRNational Highway 2, Uttar Pradesh
1.40FZDFirozabad (4)X  18:56-18:56-  1226.1 90164mNCRFirozabad, Uttar Pradesh
1.41MNRMakkhanpur (2)X  19:03-19:03-  1236.1 90166mNCRNational Highway 2, Uttar Pradesh
1.42SKBShikohabad Junction (4)X  19:10-19:10-  1246.0 90166mNCRDistrict Firozabad, Uttar Pradesh
1.43KAAKaurara (3)  19:17-19:17-  1256.9 90160mNCRFirozabad Distt, Uttar Pradesh
1.44BDNBhadan (2)  19:23-19:23-  1266.0 90160mNCRFirozabad, Uttar Pradesh
1.45BBLBalrai (3)  19:30-19:30-  1276.7 90157mNCRBalrai, Uttar Pradesh
1.46JGRJaswantnagar (2)X  19:36-19:36-  1285.4 90154mNCRJaswantnagar, Uttar Pradesh
1.47SBSarai Bhopat (2)  19:41-19:41-  1293.1 90151mNCREtawah(05688-1072), Uttar Pradesh
1.48ETWEtawah (5)  19:47-19:47-  1301.4 90154mNCRDistt. Etawah, Uttar Pradesh
1.49EKLEkdil (2)  19:53-19:53-  1311.1 90150mNCRSarai Ikdil, Uttar Pradesh
1.50BNTBharthana (3)  20:00-20:00-  1321.3 90147mNCRBharthana, Uttar Pradesh
1.51SHWSamhon (2)  20:07-20:07-  1331.7 90144mNCRSamahon, Uttar Pradesh
1.52GHSRGhasara Halt (1)  20:09-20:09-  1335.3 90146mNCRPhaphund, Uttar Pradesh
1.53ULDAchalda (3)  20:13-20:13-  1340.8 90147mNCRDist. Auraiya(05688-1072), Uttar Pradesh
1.54PATAPata (3)  20:19-20:19-  1349.1 90143mNCRPhaphund, Uttar Pradesh
1.55PHDPhaphund (4)  20:24-20:24-  1357.6 90146mNCRdist. Auraiya, Uttar Pradesh
1.56KNSKanchausi (2)  20:30-20:30-  1366.5 90143mNCRState Highway 21, Uttar Pradesh
1.57PJYPara Jani Halt (1)X  20:34-20:34-  1371.6 90139mNCRPara Jani, Uttar Pradesh
1.58JJKJhinjhak (3)X  20:38-20:38-  1377.4 90140mNCRAuraiya, Uttar Pradesh
1.59AAPAmbiapur  20:44-20:44-  1387.6 90140mNCRJhinjhak, Uttar Pradesh
1.60RURARura (4)  20:50-20:50-  1396.4 90137mNCRJhinjhak, Uttar Pradesh
1.61RMWRoshan MauX  20:55-20:55-  1404.1 90135mNCRRoshan Mau, Uttar Pradesh
1.62MTOMaitha  20:58-20:58-  1408.1 90235mNCRMDR 78C, Uttar Pradesh
1.63BPUBhaupur  21:05-21:05-  1418.0 90133mNCRKANPUR Dehat-209 307, Uttar Pradesh
1.64PNKPanki (3)  21:12-21:12-  1429.2 90129mNCRKANPUR-208 020, Uttar Pradesh
1.65GOYGovindpuri Junction (2)X  21:17-21:17-  1436.9 90129mNCRKANPUR-208 006, Uttar Pradesh
1.66CPNLKanpur C Panel  21:18-21:18-  1437.4 90127mNCRKanpur, Uttar Pradesh
1.67CNJOJuhi Outer Cabin  21:18-21:18-  1437.9 90131mNCRKanpur, Uttar Pradesh
1.68GMCKanpur Goods Marshalling Yard  21:19-21:19-  1439.5 90128mNCRKanpur-208 014, Uttar Pradesh
2CNBKanpur Central (10)X  21:20-21:25-5m51440.886128mNCRKANPUR-208 001, Uttar Pradesh
2.1CNBIChandari (2)X  21:28-21:28-  1445.3 86125mNCRKanpur Cantt, Uttar Pradesh
2.2CHKChakeri (2)  21:33-21:33-  1452.2 86126mNCRKANPUR-208 008, Uttar Pradesh
2.3RXMRooma (2)  21:36-21:36-  1456.7 86125mNCRKANPUR-208 008, Uttar Pradesh
2.4SSLSirsaul (1)  21:41-21:41-  1463.3 86125mNCRKANPUR-209 402, Uttar Pradesh
2.5PMPRPrempurX  21:45-21:45-  1469.5 86125mNCRNational Highway 2, Uttar Pradesh
2.6KBNKarbigwanX  21:49-21:49-  1474.8 86121mNCRFatehpur, Uttar Pradesh
2.7AUNGAungX  21:53-21:53-  1481.2 86123mNCRNational Highway 2, Uttar Pradesh
2.8BKOBindki Road  21:57-21:57-  1487.1 86124mNCRFatehpur, Uttar Pradesh
2.9KSQKanspur Gugauli  22:03-22:03-  1495.0 86124mNCRNational Highway 2, Uttar Pradesh
2.10MWHMalwan (2)  22:08-22:08-  1502.2 86122mNCRFatehpur, Uttar Pradesh
2.11KKSKurasti KalanX  22:14-22:14-  1511.3 86119mNCRJoniha Rd, Uttar Pradesh
2.12FTPFatehpur (3)O  22:19-22:19-  1518.4 86120mNCRFatehpur, Uttar Pradesh
2.13RAMARamva  22:23-22:23-  1524.3 86116mNCRforcing detours between Kanpur and Varanasi, Uttar Pradesh
2.14FYZFaizullapurX  22:27-22:27-  1529.4 86115mNCRFaizullapur, Uttar Pradesh
2.15RUBRasulabadX  22:33-22:33-  1538.5 86118mNCRRasulabad, Uttar Pradesh
2.16SNIESath NarainiO  22:38-22:38-  1545.6 86114mNCRNational Highway 2, Uttar Pradesh
2.17KGAKhaga (3)X  22:44-22:44-  1553.1 86114mNCRFatehpur, Uttar Pradesh
2.18KTCEKatoghan  22:48-22:48-  1560.0 86109mNCRNational Highway 2, Uttar Pradesh
2.19KUWKanwar  22:53-22:53-  1566.0 86110mNCRNational Highway 2, Uttar Pradesh
2.20ASCEAthsarai  22:57-22:57-  1571.5 86107mNCRAthsarai, Uttar Pradesh
2.21SROSirathu (2)  23:01-23:01-  1577.9 86109mNCRSirathu, Uttar Pradesh
2.22SJTShujaatpurX  23:08-23:08-  1587.7 86107mNCRNational Highway 2, Uttar Pradesh
2.23BDNPBidanpurX  23:12-23:12-  1594.0 86106mNCRBidanpur, Uttar Pradesh
2.24BREBharwari  23:15-23:15-  1598.0 86108mNCRBharwari, Uttar Pradesh
2.25MNJManoharGanj  23:21-23:21-  1605.9 86104mNCRNational Highway 2, Uttar Pradesh
2.26SYWNSaiyid SarawanX  23:26-23:26-  1613.3 86106mNCR212203 ?, Uttar Pradesh
2.27MREManauri  23:29-23:29-  1617.9 86105mNCRSabderganj-Fatehpur Rd, Uttar Pradesh
2.28BMUBamhrauliX  23:35-23:35-  1626.3 86102mNCRAllahabad, Uttar Pradesh
2.29SFGSubedarGanj (3)  23:38-23:38-  1631.3 86100mNCRAllahabad, Uttar Pradesh
2.30ALDAllahabad Junction (10)  23:41-23:41-  1635.1 86100mNCRAllahabad 211003, Uttar Pradesh
2.31NYNNaini Junction (4)  23:46-23:46-  1642.5 8698mNCRAllahabad, Uttar Pradesh
2.32COIChheoki Junction (3)  23:47-23:47-  1644.2 8696mNCRDist.-Allahabad, Uttar Pradesh
2.33KCNKarchana  23:54-23:54-  1653.2 8694mNCRKarchana, Uttar Pradesh
2.34BEPBheerpurX  00:00-00:00-  2662.3 8694mNCRNH 76, Uttar Pradesh
2.35MJAMeja Road (4)  00:08-00:08-  2673.6 8694mNCRDistrict Allahabad, Uttar Pradesh
2.36UNDUnchdihX  00:14-00:14-  2681.7 8694mNCRUnchdih, Uttar Pradesh
2.37MNFManda RoadX  00:19-00:19-  2689.8 8693mNCRNH 76, Uttar Pradesh
2.38JIAJigna (1)XO  00:25-00:25-  2698.1 8694mNCRNational Highway 76, Uttar Pradesh
2.39GAEGaipura (4)  00:30-00:30-  2705.0 8686mNCRGaipura, Uttar Pradesh
2.40BEOBiroheX  00:35-00:35-  2712.6 8683mNCRNational Highway 76, Uttar Pradesh
2.41BDLVindhyachal (3)  00:39-00:39-  2717.3 8688mNCRMirzapur, Uttar Pradesh
2.42MZPMirzapur (3)X  00:44-00:44-  2724.6 8688mNCRMirzapur, Uttar Pradesh
2.43JHGJhinguraX  00:50-00:50-  2732.9 8685mNCRNational Highway 7, Uttar Pradesh
2.44PREPahara  00:55-00:55-  2740.4 8687mNCRNational Highway 7, Uttar Pradesh
2.45DAPDagmagpurXO  01:00-01:00-  2748.5 8688mNCRDagmagpur, Uttar Pradesh
2.46CARChunar Junction (5)X  01:06-01:06-  2755.9 8685mNCRChunar Junction, Uttar Pradesh
2.47KYTKailahat (4)X  01:12-01:12-  2765.5 8683mNCRKailahat, Uttar Pradesh
2.48ARWAhraura Road (4)X  01:18-01:18-  2774.0 8685mNCRDist. Mirzapur - 231305, Uttar Pradesh
2.49JEPJeonathpur (2)  01:23-01:23-  2780.0 8683mNCRVaranasi, Uttar Pradesh
2.50NEWCNew West CabinX  01:27-01:27-  2786.5 8680mECRMughal Sarai, Uttar Pradesh
3MGSMughal Sarai Junction (8)X  01:28-01:38-10m32787.89383mECRMughalsarai 232101, Uttar Pradesh
3.1FOCMFlyover Cabin Mughal SaraiX  01:42-01:42-  2794.2 9380mECRChandauli Mjhwr, Uttar Pradesh
3.2GAQGanj Khawaja  01:44-01:44-  2796.7 9379mECRChandauli Mjhwr, Uttar Pradesh
3.3CDMRChandauli Majhwar  01:49-01:49-  2805.2 9380mECRNational Highway 2, Uttar Pradesh
3.4SYJSaidraja  01:55-01:55-  2813.6 9380mECRSaiyedraja, Uttar Pradesh
3.5KMSKaramnasaX  02:00-02:00-  2821.8 9378mECRNational Highway 2, Uttar Pradesh
3.6DCXDhanaichhaX  02:04-02:04-  2828.0 9375mECRNational Highway 2, Bihar
3.7DGODurgauti  02:07-02:07-  2833.4 9376mECRDistt Kaimur, Bihar
3.8BBUBhabua Road (4)  02:13-02:13-  2842.4 9380mECR06187-222222, Bihar
3.9MTGEMuthani  02:17-02:17-  2847.8 9383mECRNational Highway 2, Bihar
3.10PSEPusauli  02:22-02:22-  2855.7 9386mECRDistt: Rohtas, Bihar
3.11KTQKudra (2)  02:28-02:28-  2864.7 9392mECRKudra, Bihar
3.12KVDKhurmabad RoadX  02:32-02:32-  2871.6 9393mECRKhurmabad, Bihar
3.13SSGShiu Sagar Road  02:35-02:35-  2876.4 9399mECRShiu Sagar Rd, Bihar
3.14KMGEKumahu  02:39-02:39-  2882.0 93101mECRKamahu, Bihar
3.15SSMSasaram Junction (4)O  02:44-02:44-  2889.9 93111mECR06184-222051, Bihar
3.16KWDKarwandia  02:48-02:48-  2896.5 93113mECRKarwandiya, Bihar
3.17PHEPahaleja HaltX  02:52-02:52-  2903.1 93112mECRPahaleja, Bihar
3.18DOSDehri On Sone (6)  02:55-02:55-  2907.6 93114mECRRohtas(06184-253154), Bihar
3.19ADSRADSR  02:56-02:56-  2908.5 93113mECRDehri, Bihar
3.20SEBSon Nagar Junction (4)  02:59-02:59-  2913.3 93110mECRBarun, Bihar
3.21CPBHChirailaX  03:03-03:03-  2919.1 93104mECRBarun, Bihar
3.22AUBRAnugraha Narayan Road (4)X  03:06-03:06-  2924.2 93104mECR06186-285271, Bihar
3.23PESPhesar  03:12-03:12-  2933.1 93104mECRpheshar, Bihar
3.24BHKHBaghoi Kusa  03:15-03:15-  2937.7 9398mECRbel Rd, Bihar
3.25JHNJakhim  03:19-03:19-  2944.2 9393mECRbel Rd, Bihar
3.26DORDDeo Road  03:21-03:21-  2948.0 93102mECRMaluk Bigha, Bihar
3.27RFJRafiGanj (4)X  03:26-03:26-  2955.0 93102mECRRafiganj, Bihar
3.28IMGEIsmailpurX  03:32-03:32-  2964.3 93114mECRState Highway 69, Bihar
3.29GRRUGuraru  03:36-03:36-  2971.2 93114mECRGuraru, Bihar
3.30PRYParaiyaO  03:40-03:40-  2977.1 93111mECRparaiya station Rd, Bihar
3.31KSTAKastha  03:45-03:45-  2984.2 93113mECRGaya, Bihar
3.32WCBGaya West Cabin  03:48-03:48-  2989.4 93111mECRGaya, Bihar
4GAYAGaya Junction (9)X  03:50-03:53-3m32992.680117mECR0631-2220283, Bihar
4.1SICYShaheed Ishwar Chowdhary Halt (2)  03:56-03:56-  2996.3 80112mECRManpur, Bihar
4.2MPOManpur Junction (4)X  03:57-03:57-  2997.9 80113mECRGaya, Bihar
4.3BNFBandhua  04:02-04:02-  21005.1 80124mECRState Highway 70, Bihar
4.4TKNTankuppa  04:08-04:08-  21012.7 80127mECRState Highway 70, Bihar
4.5BNSLBansinala HaltX  04:13-04:13-  21018.8 80135mECRBansinala, Bihar
4.6PRPPaharpur  04:17-04:17-  21025.0 80150mECRGaya, Bihar
4.7GAPGurpa  04:26-04:26-  21036.7 80192mECRLodhwe, Bihar
4.8YGMYadugram Block HutX  04:29-04:29-  21040.0 80210mECRYadugram Block Hut, Jharkhand
4.9BSCPBaskatwa B. H.  04:32-04:32-  21044.8 80273mECRMurli, Bihar
4.10NGYNath Ganj  04:33-04:33-  21046.2 80284mECRMurli, Bihar
4.11DLWDilwaX  04:38-04:38-  21052.4 80346mECRNational Highway 31, Bihar
4.12LBZLalbag Block HutX  04:41-04:41-  21056.9 80389mECRState Highway 70, Bihar
4.13GJDGujhandi  04:43-04:43-  21059.1 80386mECRNational Highway 31, Jharkhand
4.14KQRKoderma Junction (7)X  04:50-04:50-  21069.0 80399mECR06534-222410 Koderma, Jharkhand
4.15LRBLarabadX  04:54-04:54-  21073.6 80393mECRJhumri Telaiya, Jharkhand
4.16HREHirodih  04:57-04:57-  21078.2 80371mECRJhumri Telaiya, Jharkhand
4.17SMNDSarmatanr  05:03-05:03-  21085.9 80351mECRKoderma, Jharkhand
4.18YDDYadudih  05:06-05:06-  21089.9 80352mECRNational Highway 2, Jharkhand
4.19PSBParsabad (3)X  05:10-05:10-  21095.4 80346mECRNational Highway 2, Jharkhand
4.20DSMEDasara  05:15-05:15-  21101.9 80342mECRSariya - Parsiya Road, Jharkhand
4.21CBHChaubeX  05:19-05:19-  21106.8 80325mECRParsabad, Jharkhand
4.22KSHRKeshwari  05:22-05:22-  21111.7 80313mECRMandramo, Jharkhand
4.23HZDHazaribagh Road (4)  05:27-05:27-  21117.3 80330mECRHazaribagh, Jharkhand
4.24CCKChichaki  05:30-05:30-  21122.4 80308mECRNational Highway 2, Jharkhand
4.25GRBHGarea Bihar  05:32-05:32-  21124.3 80315mECRSariya - Parsiya Rd, Jharkhand
4.26UDLWAndal West Cabin  05:33-05:33-  21125.3 80323mERAndal, Jharkhand
4.27CDBChaudhribandh  05:34-05:34-  21127.1 80314mECRMaipatoli, Jharkhand
4.28CEMEChegro  05:37-05:37-  21131.4 80333mECRBeko, Jharkhand
4.29PNMEParasnath (5)  05:47-05:47-  21144.4 80282mECRGiridih 06532-233419, Jharkhand
4.30NMGNimiaghatO  05:53-05:53-  21152.0 80268mECRNational Highway 2, Jharkhand
4.31BLMEBholldih  05:57-05:57-  21157.6 80241mECRGomoh, Jharkhand
4.32GMONetaji SC Bose Gomoh Junction (6)  06:01-06:01-  21162.4 80239mECRGomoh, Jharkhand
4.33MRQMatari  06:08-06:08-  21171.9 80246mECRDhanbad, Jharkhand
4.34NPJENichitpurX  06:12-06:12-  21177.2 80224mECRKatras, Jharkhand
4.35TETTetulmari  06:16-06:16-  21183.1 80225mECRTetulmari, Jharkhand
4.36BHNBhuli  06:20-06:20-  21188.4 80230mECRKusunda, Jharkhand
5DHNDhanbad Junction (8)X  06:23-06:28-5m121192.274235mECR2319801. Div. HQ ECR, Jharkhand
5.1DOKMDokra Halt (2)  06:32-06:32-  21197.5 74211mECRDokra, Jharkhand
5.2PKAPradhankhunta Junction (3)  06:35-06:35-  21201.3 74202mECRDhanbad, Jharkhand
5.3CAMChhota Ambana (3)  06:40-06:40-  21207.5 74200mERDhanbad, Jharkhand
5.4KAOKalubathan (2)  06:48-06:48-  21216.5 74195mERDhanbad, Jharkhand
5.5TNWThapar Nagar (2)  06:51-06:51-  21220.8 74144mERDhanbad, Jharkhand
5.6MMUMugma (3)  06:55-06:55-  21226.1 74135mERNational Highway 2, Jharkhand
5.7KMMEKumardubi (2)X  06:59-06:59-  21230.7 74135mERDhanbad - 828203(06540-222077), Jharkhand
5.8BRRBarakar (2)  07:01-07:01-  21233.2 74129mERDist. Bardhaman, West Bengal
5.9ULTKulti (3)  07:04-07:04-  21236.5 74148mERdist - bardhaman, West Bengal
5.10STNSitarampur Junction (5)  07:08-07:08-  21241.7 74139mERG T Rd Before Asansol, West Bengal
5.11BCQBarachak Junction (4)  07:11-07:11-  21245.4 74127mERdist - bardhaman, West Bengal
6ASNAsansol Junction (7)  07:15-07:19-4m521250.491113mERDist - Bardhaman, West Bengal
6.1ASNEAsansol East  07:20-07:20-  21252.1 91110mERAsansol, West Bengal
6.2KPKKalipahari (4)  07:23-07:23-  21255.7 91106mERBardhaman distt, West Bengal
6.3NMCNimcha  07:28-07:28-  21264.7 91106mERRaniganj, West Bengal
6.4RNGRaniGanj (4)  07:31-07:31-  21268.6 9192mERRaniganj, West Bengal
6.5BQTBakhtarnagar  07:34-07:34-  21273.1 9187mERKajora, West Bengal
6.6UDLAndal Junction (6)  07:36-07:36-  21275.8 9186mERAndal, West Bengal
6.7UDLEAndal East Cabin  07:37-07:37-  21277.9 9180mERAndal, West Bengal
6.8EOCAndal East Outer CabinX  07:37-07:37-  21278.3 9180mERAndal, West Bengal
6.9POLPinjrapol  07:40-07:40-  21282.1 9180mERDurgapur, West Bengal
6.10OYRWaria (4)O  07:41-07:41-  21284.0 9172mERDurgapur, West Bengal
6.11DCOPDurgapur Coke Oven Plant  07:45-07:45-  21290.4 9178mERDurgapur, West Bengal
7DGR•Durgapur (5)•X  07:47-07:49-2m421292.97871mERDurgapur, West Bengal
7.1RBHRajbandh (4)  07:55-07:55-  21300.7 7872mERRajbandh Rail Station Rd, West Bengal
7.2PANPanagarh (4)X  08:01-08:01-  21308.5 7870mERKaksa, West Bengal
7.3MNAEMankar (4)  08:09-08:09-  21318.7 7865mERMankur, West Bengal
7.4PAJParaj (4)X  08:15-08:15-  21327.0 7852mERNational Highway 2, West Bengal
7.5GLIGalsi (4)  08:20-08:20-  21333.4 7847mERBardhaman, West Bengal
7.6INCIIshan Chandi Halt (2)  08:25-08:25-  21340.0 7843mERDist - Bardhaman, West Bengal
7.7KANKhana Junction (5)X  08:28-08:28-  21343.3 7842mERDist - Bardhaman, West Bengal
7.8TITTalit (4)  08:32-08:32-  21348.8 7837mERDist - Bardhaman, West Bengal
7.9BWNBarddhaman Junction (8)XO  08:38-08:38-  21356.4 7834mERDist - Barddhaman, West Bengal
7.10GRPGangpur (4)X  08:43-08:43-  21363.4 7829mERGangpur, West Bengal
7.11SKGSaktigarh (7)  08:47-08:47-  21368.5 7828mERSaktigarh, West Bengal
7.12PRAEPalla Road (4)  08:51-08:51-  21373.3 7830mERDuragapur Expressway (NH 2), West Bengal
7.13CHCChanchai (3)X  08:53-08:53-  21376.2 7825mERChanchai, West Bengal
7.14MSAEMasagram Junction (6)  08:55-08:55-  21379.3 7825mERDist - bardhaman, West Bengal
7.15NBAENabagram (3)X  08:58-08:58-  21382.3 7822mERDattapur, West Bengal
7.16JRAEJaugram (3)  09:01-09:01-  21386.6 7823mERAstai, West Bengal
7.17JPQJhapandanga (3)X  09:02-09:02-  21388.6 7821mERBurdwan., West Bengal
7.18GRAEGurap (4)  09:06-09:06-  21393.5 7820mERMagra-Gurup Road, West Bengal
7.19HIHHajigarh (3)  09:08-09:08-  21395.7 7820mERDurgapur Expressway, West Bengal
7.20CRAECheragram Block Hut  09:09-09:09-  21397.2 7816mERDurgapur Expy, West Bengal
7.21SHBCSibaichandi (3)  09:11-09:11-  21399.5 7816mERBainchi-Dhaniakali Road, West Bengal
7.22DNHLDhaniakhali Halt (3)X  09:13-09:13-  21402.4 7814mERChunchura-Dhaniakali Rd, West Bengal
7.23BMAEBelmuri (3)  09:15-09:15-  21404.5 7815mERBelmuri Dhaniakhali Rd, West Bengal
7.24PBZPorabazar (3)  09:16-09:16-  21406.5 7814mERPorabazar Makalpur Rd, West Bengal
7.25CDAEChandanpur (4)  09:20-09:20-  21410.8 7815mERDist - hooghly, West Bengal
7.26MDSEMadhu Sudanpur (3)X  09:23-09:23-  21415.2 7811mERState Highway 2, West Bengal
7.27KQLSKamarkundu (lower) (3)  09:25-09:25-  21418.0 7812mERKamarkundu, West Bengal
7.28KQUKamarkundu (5)  09:25-09:25-  21418.1 7813mERDist - Hooghly, West Bengal
7.29BLAEBalarambati (3)  09:26-09:26-  21419.8 7816mERState Highway 2, West Bengal
7.30MBEMirzapur Bankipur (3)  09:28-09:28-  21421.8 7816mERSingpara Rd, West Bengal
7.31BRPABarui Para (4)  09:30-09:30-  21425.0 7812mER31 no Rd, West Bengal
7.32BPAEBegumpur (3)  09:33-09:33-  21428.7 7811mERChanditala-Sreerampore Rd, West Bengal
7.33JOXJanai Road (4)  09:35-09:35-  21430.7 788mERJanai Rd Railway Station, West Bengal
7.34GBRAGobra (3)  09:37-09:37-  21434.0 786mERStation Pally, West Bengal
7.35DKAEDankuni Junction (5)  09:39-09:39-  21436.3 787mERDist - Hooghly, West Bengal
7.36CCLWCalcutta Chord Link West  09:41-09:41-  21439.2 787mERHowrah, West Bengal
7.37CCRLCalcutta Chord Link Cabin  09:42-09:42-  21440.3 788mERdist - howrah, West Bengal
7.38RCDRajchandrapur (2)  09:42-09:42-  21440.6 7810mERHowrah, West Bengal
7.39BLYHBaly Halt (2)  09:44-09:44-  21442.4 7812mERDist - Howrah, West Bengal
7.40BLYGBally Ghat (2)  09:45-09:45-  21443.4 7813mERHowrah, West Bengal
7.41DAKEDakhineswar (2)  09:46-09:46-  21445.1 7810mERDist - 24 paraganas ( North ), West Bengal
7.42BARNBaranagar Road (2)p09:47-09:47-  21446.6 2410mERDist - North 24 Paraganas, West Bengal
7.43DDJDum Dum Junction (5)  09:59-09:59-  21451.2 2410mERKolkata - 700028, West Bengal
7.44BNXRBidhan Nagar Road (4)  10:07-10:07-  21454.4 248mERKolkata, West Bengal
7.45KGKKankurgachhi Road Cabin  10:10-10:10-  21455.8 248mERKolkata, West Bengal
7.46NKGNarkeldanga Coaching Yard  10:13-10:13-  21457.0 247mERKolkata, West Bengal
8SDAHKolkata Sealdah (20)10:15--921457.8-8mERPh : 033-23503535 (For North: APC Roy Road) Kolkata 700014, West Bengal
Scroll to Top
Scroll to Bottom